Regional Weather Roundup
Issued by NWS

Home | Current Version | Previous Version | Graphics & Text | Print | Product List | Glossary On
Versions: 1 2 3 4 5 6 7 8 9 10 11 12 13 14 15 16 17 18 19 20 21 22 23 24 25 26 27 28 29 30 31 32 33 34 35 36 37 38 39 40 41 42 43 44 45 46 47 48 49 50
000
ASUS45 KPSR 280010
RWRAZ

ARIZONA REGIONAL HOURLY WEATHER ROUNDUP
NATIONAL WEATHER SERVICE PHOENIX AZ
500 PM MST FRI FEB 27 2015

NOTE: FAIR INDICATES FEW OR NO CLOUDS BELOW 12,000 FEET WITH NO
SIGNIFICANT WEATHER AND/OR OBSTRUCTIONS TO VISIBILITY.

AZZ001>003-036-280100-
NORTHWEST ARIZONA

CITY           SKY/WX    TMP DP  RH WIND       PRES   REMARKS
BULLHEAD CITY  MOSUNNY   72  25  17 S7        29.59F
KINGMAN        MOSUNNY   59  23  25 S14       29.65S
6HR MIN TEMP:  51; 6HR MAX TEMP:  63;

$$

AZZ004>008-015-016-018-280100-
NORTH CENTRAL ARIZONA

CITY           SKY/WX    TMP DP  RH WIND       PRES   REMARKS
GRAND CANYON   CLOUDY    38  29  70 SW8       29.72S WCI  32
6HR MIN TEMP:  31; 6HR MAX TEMP:  41; 6HR PCP: TRACE;

PRESCOTT       PTSUNNY   53  23  31 SW17G23   29.70F
6HR MIN TEMP:  43; 6HR MAX TEMP:  56;

FLAGSTAFF      CLOUDY    39  24  55 SW15      29.72S WCI  31
6HR MIN TEMP:  37; 6HR MAX TEMP:  40; 6HR PCP: TRACE;

PAYSON         CLOUDY    55  23  28 SW10G16   29.74S
PAGE           LGT RAIN  42  34  73 NE5       29.71F
6HR MIN TEMP:  39; 6HR MAX TEMP:  44; 6HR PCP: TRACE;

$$

AZZ009>014-017-280100-
NORTHEAST ARIZONA

CITY           SKY/WX    TMP DP  RH WIND       PRES   REMARKS
WINSLOW        CLOUDY    49  28  44 NW7       29.71S
6HR MIN TEMP:  42; 6HR MAX TEMP:  51;

SAINT JOHNS    CLOUDY    50  25  37 W21G28    29.70R
6HR MIN TEMP:  49; 6HR MAX TEMP:  53;

WINDOW ROCK    LGT SNOW  35  30  82 CALM      29.74F
6HR MIN TEMP:  30; 6HR MAX TEMP:  36; 6HR PCP:  0.08;

SHOW LOW       CLOUDY    46  21  36 SW16G25   29.74S
$$

AZZ023-280100-
GREATER PHOENIX AREA

CITY           SKY/WX    TMP DP  RH WIND       PRES   REMARKS
PHOENIX        MOSUNNY   76  29  17 W14G22    29.60S
6HR MIN TEMP:  67; 6HR MAX TEMP:  78;

BUCKEYE        SUNNY     73  32  21 SW14      29.62F
GLENDALE       MOSUNNY   75  32  20 S15G21    29.62F
LUKE AFB       SUNNY     75  35  22 SW16G25   29.60F
6HR MIN TEMP:  63; 6HR MAX TEMP:  76; 6HR PCP: TRACE;

DEER VALLEY    SUNNY     72  28  19 SW13G22   29.62F
6HR MIN TEMP:  65; 6HR MAX TEMP:  73;

SCOTTSDALE     SUNNY     73  29  19 SW6G17    29.63F
6HR MIN TEMP:  65; 6HR MAX TEMP:  74;

MESA-FALCON    PTSUNNY   73  28  19 SW6       29.62S
MESA-GATEWAY   MOSUNNY   73  30  20 SW15G21   29.64F
CHANDLER       MOSUNNY   75  30  19 SW9G21    29.62S
$$

AZZ027-028-280100-
SOUTHWEST MARICOPA COUNTY AND PINAL COUNTY

CITY           SKY/WX    TMP DP  RH WIND       PRES   REMARKS
CASA GRANDE    SUNNY     75  30  19 SW16G25   29.64R
6HR MIN TEMP:  64; 6HR MAX TEMP:  75;

GILA BEND      PTSUNNY   73  40  29 SW18G24   29.63F
6HR MIN TEMP:  71; 6HR MAX TEMP:  78;

$$

AZZ503-504-507>509-280100-
SOUTHEAST ARIZONA

CITY           SKY/WX    TMP DP  RH WIND       PRES   REMARKS
TUCSON         SUNNY     73  30  20 W18       29.70S
6HR MIN TEMP:  66; 6HR MAX TEMP:  75;

DAVIS-MONTHAN  SUNNY     72  29  20 SW16G25   29.68S
6HR MIN TEMP:  65; 6HR MAX TEMP:  74;

RYAN FIELD       N/A     73  32  21 SW18G28   29.69F
NOGALES        SUNNY     68  28  22 SW25G32   29.77S
6HR MIN TEMP:  64; 6HR MAX TEMP:  71;

SIERRA VISTA   MOSUNNY   64  27  24 SW15G31   29.77S
DOUGLAS        SUNNY     68  24  19 SW26G35   29.75F
6HR MIN TEMP:  63; 6HR MAX TEMP:  71;

SAFFORD        SUNNY     68  24  19 E3        29.66F
6HR MIN TEMP:  55; 6HR MAX TEMP:  70;

$$

AZZ020-021-025-026-031-280100-
SOUTHWEST ARIZONA

CITY           SKY/WX    TMP DP  RH WIND       PRES   REMARKS
YUMA           PTSUNNY   77  40  26 SW12      29.63S
6HR MIN TEMP:  70; 6HR MAX TEMP:  78;

$$

CAZ031-033-041-043-047-048-061-280100-
SOUTHERN CALIFORNIA

CITY           SKY/WX    TMP DP  RH WIND       PRES   REMARKS
DOWNTOWN L.A.  PTSUNNY   64  52  64 CALM      29.76S
6HR MIN TEMP:  62; 6HR MAX TEMP:  66;

L.A. AIRPORT   PTSUNNY   61  54  77 W14       29.77S
6HR MIN TEMP:  60; 6HR MAX TEMP:  64;

SAN DIEGO      PTSUNNY   63  54  72 SW13      29.80F
6HR MIN TEMP:  63; 6HR MAX TEMP:  65;

BURBANK        CLOUDY    61  48  63 SW10      29.75F
6HR MIN TEMP:  58; 6HR MAX TEMP:  63;

ONTARIO        CLOUDY    60  49  66 SW7       29.76F
6HR MIN TEMP:  56; 6HR MAX TEMP:  61;

RIVERSIDE      CLOUDY    62  49  62 W7        29.76F
6HR MIN TEMP:  59; 6HR MAX TEMP:  63;

PALM SPRINGS   PTSUNNY   72  44  36 NW21G31   29.63F
6HR MIN TEMP:  68; 6HR MAX TEMP:  76;

EL CENTRO NAS  MOSUNNY   77  41  27 W21       29.62S
6HR MIN TEMP:  72; 6HR MAX TEMP:  81;

IMPERIAL       SUNNY     75  45  34 W20G30    29.61S
6HR MIN TEMP:  71; 6HR MAX TEMP:  80; 6HR PCP: TRACE;

BLYTHE         MOSUNNY   77  37  23 SW14      29.58F
6HR MIN TEMP:  66; 6HR MAX TEMP:  77;

NEEDLES        MOSUNNY   74  25  16 E10       29.57F
6HR MIN TEMP:  65; 6HR MAX TEMP:  75;

$$

NVZ020-UTZ003-280100-
SOUTHERN NEVADA-UTAH

CITY           SKY/WX    TMP DP  RH WIND       PRES   REMARKS
LAS VEGAS      MOSUNNY   64  24  21 SE6       29.55F
6HR MIN TEMP:  58; 6HR MAX TEMP:  65;

SALT LAKE CITY MOSUNNY   43  24  47 S6        29.70F
6HR MIN TEMP:  37; 6HR MAX TEMP:  45; 6HR PCP: TRACE;

$$

NMZ009-TXZ055-280100-
NEW MEXICO-WEST TEXAS

CITY           SKY/WX    TMP DP  RH WIND       PRES   REMARKS
ALBUQUERQUE    LGT SNOW  25  23  92 NW9       29.88S VSB 1   WCI  15
6HR MIN TEMP:  25; 6HR MAX TEMP:  28; 6HR PCP:  0.02;

EL PASO        MOSUNNY   44  22  41 E10G18    29.88F
6HR MIN TEMP:  35; 6HR MAX TEMP:  46;

$$


........................KEY........................
SKY/WX - SKY CONDITION/WEATHER
TMP    - TEMPERATURE IN FAHRENHEIT
DP     - DEW POINT IN FAHRENHEIT
RH     - RELATIVE HUMIDITY IN PERCENT
WIND   - DIRECTION AND SPEED IN MILES PER HOUR (MPH)
VRB    - VARIABLE WIND DIRECTION
PRES   - MEAN SEA LEVEL PRESSURE IN INCHES OF MERCURY
         F - FALLING PRESSURE   R - RISING PRESSURE
         S - STEADY PRESSURE
VSB    - VISIBILITY IN MILES
HX     - HEAT INDEX IN FAHRENHEIT
WCI    - WIND CHILL INDEX IN FAHRENHEIT
TC     - TEMPERATURE IN CELSIUS WHICH IS ALSO KNOWN AS
         TEMPERATURE IN CENTIGRADE
AFB    - AIR FORCE BASE
         LUKE AFB IS LUKE AIR FORCE BASE
         DAVIS-MONTHAN IS DAVIS-MONTHAN AIR FORCE BASE
NAS    - NAVAL AIR STATION
         EL CENTRO NAS IS EL CENTRO NAVAL AIR STATION
N/A    - NOT AVAILABLE



USA.gov is the U.S. government's official web portal to all federal, state and local government web resources and services.